| time (UTC) | temp F | wind direction | speed MPH | gust MPH | rain 1hr in | rain 24hr in | rain mn in | humidity % | barometer mb |
| 20260906154124 | 83 | 346 | 5.0 | 11.0 | 0.00 | 0.00 | 0.00 | 65 | 1026.4 |
| 20260906153106 | 83 | 317 | 6.0 | 13.0 | 0.00 | 0.00 | 0.00 | 65 | 1026.5 |
| 20260906152104 | 84 | 309 | 6.0 | 11.0 | 0.00 | 0.00 | 0.00 | 63 | 1026.5 |
| 20260906151104 | 85 | 319 | 5.0 | 10.0 | 0.00 | 0.00 | 0.00 | 61 | 1026.4 |
| 20260906150126 | 85 | 310 | 6.0 | 14.0 | 0.00 | 0.00 | 0.00 | 60 | 1026.3 |
| 20260906145124 | 85 | 317 | 6.0 | 11.0 | 0.00 | 0.00 | 0.00 | 60 | 1026.5 |
| 20260906144105 | 86 | 322 | 3.0 | 7.0 | 0.00 | 0.00 | 0.00 | 58 | 1026.5 |
| 20260906143104 | 86 | 289 | 4.0 | 11.0 | 0.00 | 0.00 | 0.00 | 55 | 1026.5 |
| 20260906142104 | 86 | 159 | 1.0 | 3.0 | 0.00 | 0.00 | 0.00 | 56 | 1026.5 |
| 20260906141104 | 86 | 134 | 2.0 | 4.0 | 0.00 | 0.00 | 0.00 | 57 | 1026.4 |
| 20260906140104 | 86 | 355 | 4.0 | 13.0 | 0.00 | 0.00 | 0.00 | 56 | 1026.4 |
| 20260906135104 | 87 | 342 | 4.0 | 10.0 | 0.00 | 0.00 | 0.00 | 49 | 1026.4 |
| 20260906134105 | 87 | 273 | 2.0 | 8.0 | 0.00 | 0.00 | 0.00 | 47 | 1026.4 |
| 20260906133105 | 86 | 326 | 7.0 | 11.0 | 0.00 | 0.00 | 0.00 | 48 | 1026.4 |
| 20260906132104 | 86 | 140 | 1.0 | 4.0 | 0.00 | 0.00 | 0.00 | 49 | 1026.5 |
| 20260906131104 | 86 | 317 | 4.0 | 9.0 | 0.00 | 0.00 | 0.00 | 49 | 1026.5 |
| 20260906130104 | 86 | 320 | 4.0 | 11.0 | 0.00 | 0.00 | 0.00 | 49 | 1026.5 |
| 20260906125104 | 86 | 137 | 1.0 | 4.0 | 0.00 | 0.00 | 0.00 | 50 | 1026.6 |
| 20260906124104 | 85 | 40 | 1.0 | 6.0 | 0.00 | 0.00 | 0.00 | 51 | 1026.6 |
| 20260906123105 | 85 | 323 | 2.0 | 7.0 | 0.00 | 0.00 | 0.00 | 51 | 1026.7 |
| 20260906122104 | 86 | 336 | 1.0 | 3.0 | 0.00 | 0.00 | 0.00 | 51 | 1026.6 |
| 20260906121106 | 85 | 274 | 2.0 | 6.0 | 0.00 | 0.00 | 0.00 | 52 | 1026.8 |
| 20260906120104 | 86 | 115 | 1.0 | 2.0 | 0.00 | 0.00 | 0.00 | 52 | 1026.7 |
| 20260906115124 | 86 | 129 | 1.0 | 3.0 | 0.00 | 0.00 | 0.00 | 52 | 1026.7 |
| 20260906114106 | 85 | 30 | 1.0 | 3.0 | 0.00 | 0.00 | 0.00 | 55 | 1026.8 |
| 20260906113104 | 85 | 66 | 1.0 | 2.0 | 0.00 | 0.00 | 0.00 | 53 | 1026.9 |
| 20260906112104 | 85 | 208 | 2.0 | 7.0 | 0.00 | 0.00 | 0.00 | 53 | 1026.8 |
| 20260906111104 | 86 | 145 | 0.0 | 1.0 | 0.00 | 0.00 | 0.00 | 51 | 1026.8 |
| 20260906110104 | 84 | 351 | 2.0 | 3.0 | 0.00 | 0.00 | 0.00 | 52 | 1026.7 |
| 20260906105104 | 84 | 15 | 3.0 | 4.0 | 0.00 | 0.00 | 0.00 | 54 | 1026.8 |
| 20260906104104 | 84 | 339 | 3.0 | 8.0 | 0.00 | 0.00 | 0.00 | 54 | 1026.9 |
| 20260906103104 | 85 | 93 | 0.0 | 2.0 | 0.00 | 0.00 | 0.00 | 52 | 1026.8 |
| 20260906102105 | 84 | 304 | 2.0 | 6.0 | 0.00 | 0.00 | 0.00 | 55 | 1026.8 |
| 20260906101105 | 83 | 331 | 3.0 | 8.0 | 0.00 | 0.00 | 0.00 | 55 | 1026.9 |
| 20260906100105 | 83 | 5 | 1.0 | 3.0 | 0.00 | 0.00 | 0.00 | 52 | 1026.9 |
| 20260906095105 | 83 | 283 | 3.0 | 4.0 | 0.00 | 0.00 | 0.00 | 52 | 1027.0 |
| 20260906094104 | 83 | 103 | 1.0 | 3.0 | 0.00 | 0.00 | 0.00 | 51 | 1027.0 |
| 20260906093104 | 82 | 90 | 1.0 | 3.0 | 0.00 | 0.00 | 0.00 | 55 | 1027.0 |
| 20260906092125 | 81 | 60 | 2.0 | 3.0 | 0.00 | 0.00 | 0.00 | 57 | 1027.0 |
| 20260906091105 | 80 | 46 | 1.0 | 3.0 | 0.00 | 0.00 | 0.00 | 56 | 1027.0 |
| 20260906090105 | 80 | 125 | 1.0 | 3.0 | 0.00 | 0.00 | 0.00 | 58 | 1027.0 |
| 20260906085104 | 80 | 105 | 1.0 | 1.0 | 0.00 | 0.00 | 0.00 | 60 | 1027.0 |
| 20260906084106 | 79 | 128 | 1.0 | 2.0 | 0.00 | 0.00 | 0.00 | 62 | 1026.8 |
| 20260906083104 | 78 | 121 | 0.0 | 2.0 | 0.00 | 0.00 | 0.00 | 64 | 1026.8 |
| 20260906082125 | 78 | 129 | 0.0 | 2.0 | 0.00 | 0.00 | 0.00 | 65 | 1026.7 |
| 20260906081105 | 78 | 123 | 1.0 | 2.0 | 0.00 | 0.00 | 0.00 | 67 | 1026.6 |
| 20260906080125 | 78 | 122 | 0.0 | 1.0 | 0.00 | 0.00 | 0.00 | 68 | 1026.4 |
| 20260906075105 | 78 | 0.0 | 0.0 | 0.00 | 0.00 | 0.00 | 66 | 1026.4 | |
| 20260906074105 | 77 | 0.0 | 0.0 | 0.00 | 0.00 | 0.00 | 67 | 1026.2 | |
| 20260906073104 | 76 | 0.0 | 0.0 | 0.00 | 0.00 | 0.00 | 69 | 1026.2 | |
| 20260906072105 | 75 | 0.0 | 0.0 | 0.00 | 0.00 | 0.00 | 69 | 1026.2 | |
| 20260906071124 | 74 | 135 | 0.0 | 2.0 | 0.00 | 0.00 | 0.00 | 70 | 1026.2 |
| 20260906070104 | 74 | 0.0 | 0.0 | 0.00 | 0.00 | 0.00 | 71 | 1026.2 | |
| 20260906065104 | 73 | 135 | 0.0 | 1.0 | 0.00 | 0.00 | 0.00 | 72 | 1026.2 |
| 20260906064104 | 72 | 134 | 0.0 | 1.0 | 0.00 | 0.00 | 0.00 | 75 | 1026.1 |
| 20260906063104 | 72 | 0.0 | 0.0 | 0.00 | 0.00 | 0.00 | 77 | 1026.1 | |
| 20260906062124 | 72 | 0.0 | 0.0 | 0.00 | 0.00 | 0.00 | 78 | 1026.0 | |
| 20260906061104 | 72 | 0.0 | 0.0 | 0.00 | 0.00 | 0.00 | 78 | 1025.8 | |
| 20260906060144 | 71 | 0.0 | 0.0 | 0.00 | 0.00 | 0.00 | 78 | 1026.0 | |
| 20260906055124 | 71 | 0.0 | 0.0 | 0.00 | 0.00 | 0.00 | 79 | 1025.8 | |
| 20260906054104 | 71 | 0.0 | 0.0 | 0.00 | 0.00 | 0.00 | 79 | 1025.8 | |
| 20260906053104 | 72 | 0.0 | 0.0 | 0.00 | 0.00 | 0.00 | 79 | 1025.6 | |
| 20260906052104 | 72 | 0.0 | 0.0 | 0.00 | 0.00 | 0.00 | 77 | 1025.6 | |
| 20260906051104 | 72 | 0.0 | 0.0 | 0.00 | 0.00 | 0.00 | 78 | 1025.6 | |
| 20260906050104 | 71 | 0.0 | 0.0 | 0.00 | 0.00 | 0.00 | 79 | 1025.6 | |
| 20260906045104 | 72 | 0.0 | 0.0 | 0.00 | 0.00 | 0.00 | 78 | 1025.6 | |
| 20260906044105 | 72 | 0.0 | 0.0 | 0.00 | 0.00 | 0.00 | 78 | 1025.5 | |
| 20260906043105 | 72 | 0.0 | 0.0 | 0.00 | 0.00 | 0.00 | 78 | 1025.5 | |
| 20260906042105 | 72 | 231 | 0.0 | 1.0 | 0.00 | 0.00 | 0.00 | 78 | 1025.5 |
| 20260906041106 | 72 | 318 | 1.0 | 2.0 | 0.00 | 0.00 | 0.00 | 78 | 1025.5 |
| 20260906040105 | 72 | 310 | 2.0 | 2.0 | 0.00 | 0.00 | 0.00 | 78 | 1025.4 |
| 20260906035104 | 72 | 321 | 1.0 | 3.0 | 0.00 | 0.00 | 0.00 | 79 | 1025.3 |
| 20260906034104 | 72 | 305 | 2.0 | 3.0 | 0.00 | 0.00 | 0.00 | 81 | 1025.1 |
| 20260906033104 | 72 | 312 | 2.0 | 3.0 | 0.00 | 0.00 | 0.00 | 80 | 1025.2 |
| 20260906032108 | 71 | 321 | 2.0 | 3.0 | 0.00 | 0.00 | 0.00 | 81 | 1025.3 |
| 20260906031105 | 71 | 77 | 0.0 | 1.0 | 0.00 | 0.00 | 0.00 | 81 | 1025.3 |
| 20260906030105 | 71 | 0.0 | 0.0 | 0.00 | 0.00 | 0.00 | 79 | 1025.2 | |
| 20260906025104 | 72 | 0.0 | 0.0 | 0.00 | 0.00 | 0.00 | 79 | 1025.3 | |
| 20260906024104 | 72 | 314 | 1.0 | 2.0 | 0.00 | 0.00 | 0.00 | 80 | 1025.4 |
| 20260906023104 | 71 | 301 | 2.0 | 3.0 | 0.00 | 0.00 | 0.00 | 83 | 1025.3 |
| 20260906022104 | 72 | 312 | 2.0 | 3.0 | 0.00 | 0.00 | 0.00 | 83 | 1025.4 |
| 20260906021104 | 72 | 297 | 3.0 | 4.0 | 0.00 | 0.00 | 0.00 | 83 | 1025.4 |
| 20260906020104 | 72 | 308 | 3.0 | 6.0 | 0.00 | 0.00 | 0.00 | 84 | 1025.4 |
| 20260906015104 | 72 | 291 | 3.0 | 6.0 | 0.00 | 0.00 | 0.00 | 84 | 1025.4 |
| 20260906014124 | 71 | 315 | 3.0 | 6.0 | 0.00 | 0.00 | 0.00 | 84 | 1025.4 |
| 20260906013107 | 71 | 305 | 3.0 | 4.0 | 0.00 | 0.00 | 0.00 | 84 | 1025.4 |
| 20260906012105 | 71 | 317 | 2.0 | 3.0 | 0.00 | 0.00 | 0.00 | 83 | 1025.6 |
| 20260906011105 | 71 | 302 | 0.0 | 2.0 | 0.00 | 0.00 | 0.00 | 83 | 1025.6 |
| 20260906010127 | 71 | 0.0 | 1.0 | 0.00 | 0.00 | 0.00 | 82 | 1025.5 | |
| 20260906005105 | 72 | 306 | 0.0 | 1.0 | 0.00 | 0.00 | 0.00 | 81 | 1025.4 |
| 20260906004105 | 72 | 307 | 1.0 | 2.0 | 0.00 | 0.00 | 0.00 | 81 | 1025.5 |
| 20260906003144 | 72 | 309 | 1.0 | 3.0 | 0.00 | 0.00 | 0.00 | 80 | 1025.6 |
| 20260906002126 | 72 | 307 | 1.0 | 2.0 | 0.00 | 0.00 | 0.00 | 80 | 1025.6 |
| 20260906001125 | 73 | 302 | 2.0 | 3.0 | 0.00 | 0.00 | 0.00 | 79 | 1025.7 |
| 20260906000104 | 73 | 295 | 2.0 | 3.0 | 0.00 | 0.00 | 0.00 | 78 | 1025.6 |
| 20260905235104 | 73 | 291 | 3.0 | 6.0 | 0.00 | 0.00 | 0.00 | 77 | 1025.9 |
| 20260905234205 | 73 | 308 | 3.0 | 4.0 | 0.00 | 0.00 | 0.00 | 77 | 1025.9 |
| 20260905233104 | 73 | 306 | 2.0 | 3.0 | 0.00 | 0.00 | 0.00 | 77 | 1025.9 |
| 20260905232104 | 73 | 301 | 2.0 | 3.0 | 0.00 | 0.00 | 0.00 | 77 | 1025.8 |
| 20260905231104 | 73 | 314 | 2.0 | 3.0 | 0.00 | 0.00 | 0.00 | 76 | 1025.8 |
| 20260905230104 | 73 | 328 | 3.0 | 4.0 | 0.00 | 0.00 | 0.00 | 76 | 1025.8 |
| 20260905225104 | 73 | 300 | 3.0 | 4.0 | 0.00 | 0.00 | 0.00 | 76 | 1025.9 |
| 20260905224124 | 73 | 308 | 3.0 | 4.0 | 0.00 | 0.00 | 0.00 | 77 | 1026.0 |
| 20260905223104 | 73 | 287 | 3.0 | 4.0 | 0.00 | 0.00 | 0.00 | 77 | 1025.8 |
| 20260905222105 | 73 | 320 | 4.0 | 6.0 | 0.00 | 0.00 | 0.00 | 77 | 1025.9 |
| 20260905221145 | 73 | 303 | 3.0 | 4.0 | 0.00 | 0.00 | 0.00 | 77 | 1025.9 |
| 20260905220105 | 72 | 257 | 2.0 | 3.0 | 0.00 | 0.00 | 0.00 | 80 | 1025.9 |
| 20260905215105 | 72 | 319 | 3.0 | 4.0 | 0.00 | 0.00 | 0.00 | 83 | 1025.8 |
| 20260905214104 | 72 | 310 | 3.0 | 6.0 | 0.00 | 0.00 | 0.00 | 82 | 1025.8 |
| 20260905213124 | 73 | 328 | 3.0 | 4.0 | 0.00 | 0.00 | 0.00 | 81 | 1025.8 |
| 20260905212107 | 73 | 326 | 2.0 | 4.0 | 0.00 | 0.00 | 0.00 | 80 | 1025.7 |
| 20260905211105 | 73 | 296 | 3.0 | 4.0 | 0.00 | 0.00 | 0.00 | 80 | 1025.9 |
| 20260905210105 | 73 | 308 | 4.0 | 6.0 | 0.00 | 0.00 | 0.00 | 79 | 1025.7 |
| 20260905205104 | 73 | 326 | 3.0 | 6.0 | 0.00 | 0.00 | 0.00 | 79 | 1025.7 |
| 20260905204104 | 73 | 297 | 3.0 | 6.0 | 0.00 | 0.00 | 0.00 | 79 | 1025.8 |
| 20260905203124 | 73 | 308 | 3.0 | 4.0 | 0.00 | 0.00 | 0.00 | 79 | 1025.5 |
| 20260905202105 | 73 | 305 | 4.0 | 7.0 | 0.00 | 0.00 | 0.00 | 78 | 1025.8 |
| 20260905201124 | 73 | 306 | 4.0 | 6.0 | 0.00 | 0.00 | 0.00 | 78 | 1025.8 |
| 20260905200105 | 73 | 297 | 5.0 | 7.0 | 0.00 | 0.00 | 0.00 | 77 | 1025.9 |
| 20260905195124 | 74 | 305 | 5.0 | 7.0 | 0.00 | 0.00 | 0.00 | 76 | 1025.7 |
| 20260905194124 | 74 | 308 | 5.0 | 8.0 | 0.00 | 0.00 | 0.00 | 74 | 1025.6 |
| 20260905193104 | 74 | 305 | 5.0 | 8.0 | 0.00 | 0.00 | 0.00 | 74 | 1025.6 |
| 20260905192104 | 74 | 304 | 6.0 | 9.0 | 0.00 | 0.00 | 0.00 | 73 | 1025.6 |
| 20260905191104 | 75 | 319 | 5.0 | 10.0 | 0.00 | 0.00 | 0.00 | 71 | 1025.5 |
| 20260905190105 | 75 | 336 | 5.0 | 8.0 | 0.00 | 0.00 | 0.00 | 69 | 1025.5 |
| 20260905185124 | 76 | 321 | 5.0 | 8.0 | 0.00 | 0.00 | 0.00 | 66 | 1025.5 |
| 20260905184105 | 76 | 292 | 6.0 | 10.0 | 0.00 | 0.00 | 0.00 | 65 | 1025.1 |
| 20260905183104 | 77 | 303 | 5.0 | 7.0 | 0.00 | 0.00 | 0.00 | 64 | 1025.1 |
| 20260905182105 | 77 | 300 | 4.0 | 8.0 | 0.00 | 0.00 | 0.00 | 62 | 1025.2 |
| 20260905181104 | 78 | 291 | 4.0 | 7.0 | 0.00 | 0.00 | 0.00 | 60 | 1025.0 |
| 20260905180105 | 79 | 302 | 5.0 | 7.0 | 0.00 | 0.00 | 0.00 | 56 | 1024.9 |
| 20260905175105 | 79 | 296 | 5.0 | 9.0 | 0.00 | 0.00 | 0.00 | 54 | 1024.9 |
| 20260905174104 | 80 | 271 | 4.0 | 9.0 | 0.00 | 0.00 | 0.00 | 53 | 1024.7 |
| 20260905173104 | 80 | 286 | 3.0 | 6.0 | 0.00 | 0.00 | 0.00 | 53 | 1024.7 |
| 20260905172105 | 81 | 275 | 5.0 | 7.0 | 0.00 | 0.00 | 0.00 | 53 | 1024.6 |
| 20260905171105 | 81 | 291 | 5.0 | 8.0 | 0.00 | 0.00 | 0.00 | 52 | 1024.6 |
| 20260905170104 | 82 | 315 | 4.0 | 7.0 | 0.00 | 0.00 | 0.00 | 51 | 1024.6 |
| 20260905165104 | 82 | 317 | 5.0 | 9.0 | 0.00 | 0.00 | 0.00 | 52 | 1024.7 |
| 20260905164104 | 83 | 338 | 5.0 | 8.0 | 0.00 | 0.00 | 0.00 | 50 | 1024.6 |
| 20260905163104 | 83 | 314 | 6.0 | 9.0 | 0.00 | 0.00 | 0.00 | 49 | 1024.6 |
| 20260905162105 | 84 | 323 | 6.0 | 11.0 | 0.00 | 0.00 | 0.00 | 46 | 1024.6 |
| 20260905161105 | 84 | 260 | 4.0 | 8.0 | 0.00 | 0.00 | 0.00 | 45 | 1024.5 |
| 20260905160105 | 84 | 327 | 5.0 | 8.0 | 0.00 | 0.00 | 0.00 | 46 | 1024.6 |
| 20260905155105 | 84 | 298 | 5.0 | 10.0 | 0.00 | 0.00 | 0.00 | 48 | 1024.8 |